Погода в Сеитовке

Россия / Астраханская область     46°43′31″N   48°03′32″E
темп.,
°C
ветер,
м/с
пор.,
м/с
влажн.,
%
обл.,
%
осадки,
мм/ч
давл.,
гПа
погр.,
м
7 мая, пт
пт701:00+13ю234927 0.0 101752
04:00+12ю22515 0.0 101711
07:00+13юв2344100 0.0 1017105
10:00+18юв3431100 0.0 1018990
13:00+20ю3427100 0.0 10171872
16:00+22юз542444 0.0 10162115
19:00+21юз3426100 0.0 10161239
22:00+16ююз510445 0.0 1018275
8 мая, сб
сб801:00+15ююз510543 0.0 1018250
04:00+15ююз49557 0.0 1017269
07:00+15юз35620 0.0 1018195
10:00+21зюз224484 0.0 1017773
13:00+24юз33324 0.0 10172306
16:00+26юз43275 0.0 10152422
19:00+24ююз5431100 0.0 10151164
22:00+18ю6942100 0.0 1015294
9 мая, вс
вс901:00+16ю484794 0.0 1015215
04:00+15ююв355098 0.0 1014140
07:00+16юв48537 0.0 1013292
10:00+23ююв81033100 0.0 10121266
13:00+25ююв91028100 0.0 10111733
16:00+24ююв91138100 0.0 10101700
19:00+21ююв61050100 0.0 1010928
22:00+18ююв346185 0.0 101196
10 мая, пн
пн1001:00+14зсз91076100 0.0 1011371
04:00+11з91284100 1.7 1011549
07:00+9зсз81382100 2.3 1013594
10:00+9з81182100 3.9 1015793
13:00+10з81071100 4.3 10161004
16:00+14з7951100 4.8 10161717
19:00+13зсз475380 0.0 1016921
22:00+11ююз116366 0.0 101821
11 мая, вт
вт1101:00+10ю22664 0.0 101828
04:00+9зюз347182 0.0 101966
07:00+10зсз23702 0.0 1020150
10:00+13ссз1151100 0.0 1021775
13:00+14ссв3348100 0.2 1021841
16:00+17ссв563881 0.2 10201555
19:00+17с5639100 0.0 1019981
22:00+14ссв695412 0.0 1019504